Location: Allos
(44.2333°N, 6.6333°E)
Time: 22:58:27
(UTC+00:00)

Cosmos 1821 Rocket - Pass Details

Date: 22 April 2021
Orbit: 946 x 1003 km, 82.9° (Epoch: 16 May)

Event Time Altitude Azimuth Distance (km) Brightness Sun altitude
Rises 01:39:44 0° 351° (N) 3,708 7.7 -26.5°
Reaches altitude 10° 01:42:15 10° 351° (N) 2,763 6.9 -26.3°
Maximum altitude 01:48:37 86° 265° (W) 1,008 3.9 -25.6°
Enters shadow 01:50:22 51° 179° (S) 1,234 4.2 -25.4°
